星链-31459 (STARLINK-31459 )

导读

STARLINK-31459是美国太空探索技术公司(SpaceX)星链(Starlink)卫星互联网项目的低轨通信卫星,于2024年3月16日发射入轨。作为星链星座的组成部分,它运行于近地轨道,依托激光星间链路与相控阵天线技术,为全球尤其偏远、基础设施薄弱地区提供高速低延迟的宽带互联网接入服务,助力星链实现全球连续覆盖,推动卫星互联网组网进程。

基本信息
目录编号:
59233
目录名称:
STARLINK-31459
国际标识:
2024-049C
轨道中心:
EARTH
卫星名称:
星链-31459
卫星全名:
星链-31459 (STARLINK-31459 )
卫星状态:
在轨 (已飞行902 天)
发射日期:
2024-03-16 UTC
国别 :
美国 (US)
星等 :
--
轨道信息
数据来源 国际轨道数据
星历时间: 2026-09-04T13:51:33+0800
11小时前
查看轨道信息
半长轴: 6861.137km
偏心率: 0.000145
轨道倾角: 43.005°
近地点辐角 266.742°
升交点赤经 215.159°
平近点角 93.327°
近地点: 482.005km
远地点: 483.995km
周期: 94.266分钟
每日圈数: 15.275964
详细信息
固有亮度:
5
最大亮度:
0.3
卫星平台:
Starlink v2.0 mini
覆盖范围:
全球
运营商:
太空探索技术公司
运营商所在国:
美国
制造商(研发单位):
太空探索技术公司
制造商所在国:
美国
使用方式:
暂无
卫星简介
星链(Starlink)计划是由太空探索技术公司(SpaceX)提出的一个巨型低轨卫星互联网星座项目,计划在2019年至2024年间在太空搭建由约1.2万颗卫星组成的“星链”网络,其中1584颗将部署在地球上空550千米处的近地轨道,并从2020年开始工作。该卫星仍在工作。
2D轨道图
3D轨道图
轨道高度分析图
轨道倾角分析图
轨道综合分析图
查看轨道综合分析图
交会数据列表
事件ID 空间交会对象 最接近时刻(TCA) 交会距离 交会风险概率(CRP) 交会风险指数(CRI) 操作
CDM_260905-134701-921005-923321
2026-09-05T
13:47:26+0000
0.965 km
远距离
2.717909E-5 中风险 0.64
CDM_260906-210705-923306-419921
SJ-26 (64199)
2026-09-06T
21:07:36+0000
1.844 km
极远距离
3.314133E-6 低风险 0.45
CDM_260905-080104-943305-923321
2026-09-05T
08:01:49+0000
2.090 km
极远距离
1.747641E-6 低风险 0.4
CDM_260904-234905-923305-977421
OBJECT B (59774)
2026-09-04T
23:49:41+0000
2.549 km
极远距离
1.663415E-6 低风险 0.39
CDM_260906-105505-923306-262521
2026-09-06T
10:55:46+0000
2.858 km
极远距离
1.33621E-6 低风险 0.38